Home > Weather > Saint Helier > Past weeks

Flag for Jersey Past Weather in Saint Helier, Jersey — Yesterday and Last 2 Weeks

Now
66 °F

Partly sunny.


Feels Like: 66 °F
Forecast: 61 / 67 °F
Wind: 8 mph from West

Location: Jersey Airport

Current Time: Jul 24, 2016 at 5:50:49 PM

Latest Report: Jul 24, 2016 at 5:20 PM


Visibility: N/A

Pressure: 30.15 "Hg

Humidity: 88%

Dew Point: 63 °F

Location of Saint HelierLocation

Past Weather in Saint Helier — Graph

°F

Saint Helier Temperature Yesterday

Maximum temperature yesterday: 68 °F (at 1:20 PM)
Minimum temperature yesterday: 57 °F (at 10:20 PM)
Average temperature yesterday: 63 °F

High & Low Weather Summary for the Past Weeks

 TemperatureHumidityPressure
High91 °F (Jul 19, 3:20 PM)100% (Jul 10, 6:50 AM)30.42 "Hg (Jul 10, 6:50 AM)
Low54 °F (Jul 13, 5:20 AM)38% (Jul 19, 4:50 PM)29.80 "Hg (Jul 20, 3:50 AM)
Average65 °F81%30.11 "Hg
* Reported Jul 9 4:20 PM — Jul 24 4:20 PM, Saint Helier, Weather by CustomWeather, © 2016

Note: Actual official high and low records may vary slightly from our data, if they occured in-between our weather recording intervals... More about our weather records

Advertising

Saint Helier Weather History for the Previous 24 Hours

Scroll right to see more
 ConditionsComfort  
Time TempWeatherWind HumidityBarometerVisibility
4:20 PM
Sun, Jul 24
66 °FPartly sunny.10 mph88%30.15 "HgN/A
3:50 PM64 °FPartly sunny.7 mph94%30.15 "HgN/A
3:20 PM64 °FDrizzle. Partly sunny.6 mph94%30.15 "Hg2 mi
2:50 PM66 °FPartly sunny.8 mph83%30.15 "HgN/A
2:20 PM66 °FPassing clouds.9 mph83%30.15 "HgN/A
1:50 PM70 °FPassing clouds.8 mph73%30.15 "HgN/A
1:20 PM68 °FPassing clouds.10 mph78%30.15 "HgN/A
12:50 PM68 °FPassing clouds.10 mph83%30.15 "HgN/A
12:20 PM68 °FPassing clouds.12 mph78%30.15 "HgN/A
11:50 AM66 °FFog.8 mph88%30.18 "HgN/A
11:20 AM66 °FScattered clouds.9 mph88%30.18 "HgN/A
10:50 AM66 °FPartly sunny.10 mph88%30.18 "Hg4 mi
10:20 AM64 °FFog.13 mph94%30.18 "Hg3 mi
9:50 AM64 °FFog.13 mph94%30.15 "Hg3 mi
9:20 AM63 °FFog.9 mph94%30.15 "Hg2 mi
8:50 AM63 °FFog.10 mph94%30.15 "Hg3 mi
8:20 AM63 °FPartly sunny.10 mph94%30.15 "Hg6 mi
7:50 AM63 °FPartly sunny.10 mph94%30.15 "HgN/A
7:20 AM63 °FPartly sunny.10 mph88%30.15 "HgN/A
6:50 AM61 °FPartly sunny.7 mph94%30.15 "HgN/A
6:20 AM61 °FPassing clouds.8 mph100%30.15 "HgN/A
5:50 AM61 °FPassing clouds.7 mph94%30.15 "HgN/A
5:20 AM61 °FPassing clouds.7 mph100%30.15 "HgN/A
4:50 AM61 °FPassing clouds.7 mph100%30.15 "HgN/A
4:20 AM61 °FPassing clouds.6 mph100%30.15 "HgN/A
3:50 AM61 °FPassing clouds.7 mph100%30.15 "HgN/A
11:20 PM
Sat, Jul 23
59 °FPassing clouds.6 mph94%30.21 "HgN/A
10:50 PM57 °FClear.6 mph94%30.18 "Hg10 mi
10:20 PM57 °FClear.7 mph94%30.21 "Hg10 mi
9:50 PM59 °FSunny.7 mph94%30.21 "Hg10 mi
9:20 PM59 °FPassing clouds.7 mph88%30.18 "HgN/A
8:50 PM59 °FPassing clouds.6 mph88%30.18 "HgN/A
8:20 PM63 °FPassing clouds.7 mph77%30.18 "HgN/A
7:50 PM63 °FPassing clouds.7 mph83%30.18 "HgN/A
7:20 PM64 °FPassing clouds.7 mph73%30.18 "HgN/A
6:50 PM64 °FPassing clouds.7 mph78%30.18 "HgN/A
6:20 PM64 °FPassing clouds.9 mph83%30.18 "HgN/A
5:50 PM66 °FPassing clouds.9 mph73%30.18 "HgN/A
5:20 PM66 °FPassing clouds.5 mph78%30.18 "HgN/A
Weather by CustomWeather, © 2016

See weather overviewHow to use our weather pages